TimeEST,TemperatureF,Dew PointF,Humidity,Sea Level PressureIn,VisibilityMPH,Wind Direction,Wind SpeedMPH,Gust SpeedMPH,PrecipitationIn,Events,Conditions,WindDirDegrees,DateUTC
12:15 AM,48.2,48.2,100,30.00,4.0,Calm,Calm,-,0.01,Rain,Rain,0,2013-01-17 05:15:00
12:35 AM,48.2,48.2,100,30.00,4.0,Calm,Calm,-,0.03,Rain,Light Rain,0,2013-01-17 05:35:00
12:55 AM,48.2,48.2,100,30.00,4.0,Calm,Calm,-,0.04,Rain,Light Rain,0,2013-01-17 05:55:00
1:15 AM,48.2,48.2,100,30.01,3.0,Calm,Calm,-,N/A,Rain,Rain,0,2013-01-17 06:15:00
1:35 AM,48.2,48.2,100,30.01,4.0,Calm,Calm,-,0.04,Rain,Rain,0,2013-01-17 06:35:00
1:55 AM,48.2,48.2,100,30.02,3.0,Calm,Calm,-,0.06,Rain,Heavy Rain,0,2013-01-17 06:55:00
2:15 AM,48.2,48.2,100,30.01,3.0,Calm,Calm,-,0.01,Rain,Rain,0,2013-01-17 07:15:00
2:35 AM,48.2,48.2,100,30.00,4.0,ENE,3.5,-,0.03,Rain,Rain,60,2013-01-17 07:35:00
2:55 AM,48.2,48.2,100,29.99,5.0,NE,3.5,-,0.04,Rain,Heavy Rain,50,2013-01-17 07:55:00
3:15 AM,48.2,48.2,100,30.00,5.0,Calm,Calm,-,0.01,Rain,Heavy Rain,0,2013-01-17 08:15:00
3:35 AM,48.2,48.2,100,30.00,4.0,Calm,Calm,-,0.04,Rain,Rain,0,2013-01-17 08:35:00
3:55 AM,48.2,48.2,100,30.01,5.0,North,3.5,-,0.05,Rain,Light Rain,360,2013-01-17 08:55:00
4:15 AM,46.4,46.4,100,30.00,5.0,North,4.6,-,N/A,Rain,Light Rain,10,2013-01-17 09:15:00
4:35 AM,46.4,46.4,100,30.00,5.0,NNE,4.6,-,0.03,Rain,Rain,20,2013-01-17 09:35:00
4:55 AM,46.4,46.4,100,30.00,7.0,NE,3.5,-,0.04,,Drizzle,50,2013-01-17 09:55:00
5:15 AM,46.4,46.4,100,30.01,7.0,North,3.5,-,0.01,Rain,Rain,10,2013-01-17 10:15:00
5:35 AM,46.4,46.4,100,30.00,7.0,NE,6.9,-,0.03,Rain,Light Rain,50,2013-01-17 10:35:00
5:55 AM,46.4,46.4,100,30.01,10.0,NE,3.5,-,0.03,,Drizzle,50,2013-01-17 10:55:00
6:15 AM,46.4,46.4,100,30.02,10.0,NNE,3.5,-,N/A,,Drizzle,20,2013-01-17 11:15:00
6:35 AM,46.4,46.4,100,30.02,7.0,NE,4.6,-,N/A,,Heavy Drizzle,50,2013-01-17 11:35:00
6:55 AM,46.4,46.4,100,30.02,10.0,NE,3.5,-,0.01,,Light Drizzle,40,2013-01-17 11:55:00
7:15 AM,46.4,46.4,100,30.02,10.0,NE,4.6,-,N/A,,Drizzle,40,2013-01-17 12:15:00
7:35 AM,46.4,46.4,100,30.03,10.0,NE,3.5,-,N/A,Rain,Rain,40,2013-01-17 12:35:00
7:55 AM,46.4,46.4,100,30.05,4.0,NNW,3.5,-,0.03,Rain,Rain,340,2013-01-17 12:55:00
8:15 AM,46.4,46.4,100,30.07,4.0,NNW,3.5,-,0.03,Rain,Rain,340,2013-01-17 13:15:00
8:35 AM,46.4,46.4,100,30.05,5.0,NE,4.6,-,0.05,Rain,Rain,50,2013-01-17 13:35:00
8:55 AM,46.4,46.4,100,30.06,7.0,NE,6.9,-,0.06,,Drizzle,40,2013-01-17 13:55:00
9:15 AM,46.4,46.4,100,30.07,7.0,North,-9999.0,-,N/A,Rain,Rain,0,2013-01-17 14:15:00
9:35 AM,46.4,46.4,100,30.07,7.0,NE,4.6,-,N/A,Rain,Rain,40,2013-01-17 14:35:00
9:55 AM,46.4,46.4,100,30.09,5.0,North,4.6,-,0.02,Rain,Rain,360,2013-01-17 14:55:00
10:15 AM,46.4,46.4,100,30.07,4.0,NNE,5.8,-,0.02,Rain,Rain,20,2013-01-17 15:15:00
10:35 AM,46.4,46.4,100,30.06,4.0,NE,8.1,-,0.04,Rain,Rain,40,2013-01-17 15:35:00
10:55 AM,46.4,46.4,100,30.05,7.0,NE,6.9,-,0.04,,Drizzle,40,2013-01-17 15:55:00
11:15 AM,46.4,46.4,100,30.03,7.0,NE,10.4,-,N/A,,Drizzle,50,2013-01-17 16:15:00
11:35 AM,46.4,46.4,100,30.03,4.0,NNE,6.9,-,0.01,,Heavy Drizzle,30,2013-01-17 16:35:00
11:55 AM,46.4,46.4,100,30.02,7.0,NNE,8.1,-,0.01,Rain,Light Rain,30,2013-01-17 16:55:00
12:15 PM,46.4,46.4,100,30.00,7.0,NE,12.7,-,N/A,,Drizzle,50,2013-01-17 17:15:00
12:35 PM,46.4,46.4,100,30.01,7.0,North,-9999.0,-,0.01,Rain,Heavy Rain,0,2013-01-17 17:35:00
12:55 PM,46.4,46.4,100,30.00,4.0,NNE,8.1,-,0.02,Rain,Rain,30,2013-01-17 17:55:00
1:15 PM,46.4,46.4,100,29.99,5.0,NE,9.2,-,0.01,Rain,Heavy Rain,40,2013-01-17 18:15:00
1:35 PM,46.4,46.4,100,29.97,5.0,NNE,9.2,-,0.01,,Heavy Drizzle,20,2013-01-17 18:35:00
1:55 PM,46.4,46.4,100,29.97,5.0,NE,9.2,-,0.02,,Drizzle,40,2013-01-17 18:55:00
2:15 PM,44.6,44.6,100,29.96,4.0,NNE,9.2,24.2,N/A,Rain,Light Rain,30,2013-01-17 19:15:00
2:35 PM,44.6,44.6,100,29.94,5.0,NE,8.1,-,N/A,,Drizzle,40,2013-01-17 19:35:00
2:55 PM,44.6,44.6,100,29.95,10.0,NE,8.1,17.3,N/A,,Overcast,40,2013-01-17 19:55:00
3:15 PM,44.6,44.6,100,29.95,10.0,NE,10.4,-,N/A,,Overcast,40,2013-01-17 20:15:00
3:35 PM,44.6,44.6,100,29.96,5.0,NE,12.7,18.4,N/A,,Heavy Drizzle,40,2013-01-17 20:35:00
3:55 PM,44.6,44.6,100,29.96,4.0,NE,12.7,18.4,N/A,,Drizzle,40,2013-01-17 20:55:00
4:15 PM,44.6,44.6,100,29.96,5.0,NE,15.0,21.9,0.01,,Drizzle,50,2013-01-17 21:15:00
4:35 PM,44.6,44.6,100,29.97,10.0,NE,11.5,17.3,N/A,Rain,Light Rain,50,2013-01-17 21:35:00
4:55 PM,42.8,42.8,100,29.97,5.0,NE,15.0,19.6,0.02,Rain,Light Rain,40,2013-01-17 21:55:00
5:55 PM,41.0,41.0,100,30.02,2.0,NE,15.0,23.0,0.09,,Overcast,40,2013-01-17 22:55:00
6:35 PM,39.2,39.2,100,30.00,7.0,NE,21.9,33.4,0.04,Rain,Rain,40,2013-01-17 23:35:00
6:55 PM,37.4,37.4,100,30.04,10.0,NNE,9.2,23.0,0.05,Rain,Rain,30,2013-01-17 23:55:00
7:35 PM,32.0,32.0,100,30.04,2.5,NE,11.5,16.1,0.04,Snow,Light Snow,40,2013-01-18 00:35:00
8:15 PM,32.0,32.0,100,30.02,2.5,NNE,11.5,17.3,0.01,Snow,Light Snow,30,2013-01-18 01:15:00
8:55 PM,32.0,32.0,100,30.07,1.2,NNE,6.9,-,0.04,Snow,Snow,30,2013-01-18 01:55:00
9:15 PM,32.0,32.0,100,30.04,1.0,North,-9999.0,-,0.03,Snow,Snow,0,2013-01-18 02:15:00
9:35 PM,32.0,32.0,100,30.04,1.8,NNE,6.9,17.3,N/A,Snow,Light Snow,20,2013-01-18 02:35:00
9:55 PM,32.0,32.0,100,30.07,1.8,North,5.8,-,0.08,Snow,Light Snow,10,2013-01-18 02:55:00
10:15 PM,32.0,32.0,100,30.07,2.5,North,6.9,-,0.01,Snow,Light Snow,10,2013-01-18 03:15:00
10:35 PM,32.0,32.0,100,30.07,2.5,North,6.9,-,0.01,Snow,Light Snow,10,2013-01-18 03:35:00
10:55 PM,32.0,32.0,100,30.08,3.0,North,4.6,-,0.02,Snow,Light Snow,10,2013-01-18 03:55:00